Time,TemperatureF,DewpointF,PressureIn,WindDirection,WindDirectionDegrees,WindSpeedMPH,WindSpeedGustMPH,Humidity,HourlyPrecipIn,Conditions,Clouds,dailyrainin,SoftwareType,DateUTC
2013-08-13 00:01:00,67.6,63.7,30.24,South,180,57.0,57.0,88,0.00,,,0.00,VWS V13.01,2013-08-13 04:01:00,
2013-08-13 00:02:00,67.4,63.7,30.24,South,180,57.0,57.0,88,0.00,,,0.00,VWS V13.01,2013-08-13 04:02:00,
2013-08-13 00:07:00,67.4,63.5,30.24,South,180,57.0,57.0,88,0.00,,,0.00,VWS V13.01,2013-08-13 04:07:00,
2013-08-13 00:12:00,67.1,63.5,30.24,South,180,57.0,57.0,88,0.00,,,0.00,VWS V13.01,2013-08-13 04:12:00,
2013-08-13 00:18:00,67.1,63.4,30.23,South,180,57.0,57.0,88,0.00,,,0.00,VWS V13.01,2013-08-13 04:18:00,
2013-08-13 00:23:00,67.1,63.4,30.23,South,180,57.0,57.0,88,0.00,,,0.00,VWS V13.01,2013-08-13 04:23:00,
2013-08-13 00:28:00,66.9,63.2,30.23,South,180,57.0,57.0,88,0.00,,,0.00,VWS V13.01,2013-08-13 04:28:00,
2013-08-13 00:33:00,66.9,63.2,30.23,South,180,57.0,57.0,88,0.00,,,0.00,VWS V13.01,2013-08-13 04:33:00,
2013-08-13 00:38:00,66.9,63.2,30.23,South,180,57.0,57.0,88,0.00,,,0.00,VWS V13.01,2013-08-13 04:38:00,
2013-08-13 00:43:00,66.7,63.2,30.23,South,180,57.0,57.0,88,0.00,,,0.00,VWS V13.01,2013-08-13 04:43:00,
2013-08-13 00:48:00,66.7,63.0,30.22,South,180,57.0,57.0,88,0.00,,,0.00,VWS V13.01,2013-08-13 04:48:00,
2013-08-13 00:53:00,66.5,63.0,30.23,South,180,57.0,57.0,88,0.00,,,0.00,VWS V13.01,2013-08-13 04:53:00,
2013-08-13 00:58:00,66.5,62.8,30.22,South,180,57.0,57.0,88,0.00,,,0.00,VWS V13.01,2013-08-13 04:58:00,
2013-08-13 01:03:00,66.3,62.8,30.23,South,180,57.0,57.0,88,0.00,,,0.00,VWS V13.01,2013-08-13 05:03:00,
2013-08-13 01:08:00,66.3,62.6,30.22,South,180,57.0,57.0,88,0.00,,,0.00,VWS V13.01,2013-08-13 05:08:00,
2013-08-13 01:13:00,66.3,62.6,30.22,South,180,57.0,57.0,88,0.00,,,0.00,VWS V13.01,2013-08-13 05:13:00,
2013-08-13 01:18:00,66.3,62.6,30.21,South,180,57.0,57.0,88,0.00,,,0.00,VWS V13.01,2013-08-13 05:18:00,
2013-08-13 01:23:00,66.3,62.6,30.21,South,180,57.0,57.0,88,0.00,,,0.00,VWS V13.01,2013-08-13 05:23:00,
2013-08-13 01:28:00,66.3,62.5,30.21,South,180,57.0,57.0,88,0.00,,,0.00,VWS V13.01,2013-08-13 05:28:00,
2013-08-13 01:33:00,66.2,62.3,30.21,South,180,57.0,57.0,88,0.00,,,0.00,VWS V13.01,2013-08-13 05:33:00,
2013-08-13 01:38:00,66.0,62.3,30.21,South,180,57.0,57.0,88,0.00,,,0.00,VWS V13.01,2013-08-13 05:38:00,
2013-08-13 01:43:00,66.0,62.7,30.20,South,180,57.0,57.0,88,0.00,,,0.00,VWS V13.01,2013-08-13 05:43:00,
2013-08-13 01:48:00,66.0,62.7,30.20,South,180,57.0,57.0,88,0.00,,,0.00,VWS V13.01,2013-08-13 05:48:00,
2013-08-13 01:53:00,66.0,62.7,30.21,South,180,57.0,57.0,89,0.00,,,0.00,VWS V13.01,2013-08-13 05:53:00,
2013-08-13 01:58:00,66.0,62.7,30.20,South,180,57.0,57.0,89,0.04,,,0.04,VWS V13.01,2013-08-13 05:58:00,
2013-08-13 02:03:00,66.0,62.7,30.20,South,180,57.0,57.0,89,0.08,,RA,0.08,VWS V13.01,2013-08-13 06:03:00,
2013-08-13 02:08:00,66.0,62.7,30.19,South,180,57.0,57.0,89,0.10,,RA,0.10,VWS V13.01,2013-08-13 06:08:00,
2013-08-13 02:13:00,66.0,62.7,30.19,South,180,57.0,57.0,89,0.10,,RA,0.10,VWS V13.01,2013-08-13 06:13:00,
2013-08-13 02:18:00,66.0,62.7,30.19,South,180,57.0,57.0,89,0.10,,RA,0.10,VWS V13.01,2013-08-13 06:18:00,
2013-08-13 02:23:00,66.0,62.7,30.19,South,180,57.0,57.0,89,0.10,,RA,0.10,VWS V13.01,2013-08-13 06:23:00,
2013-08-13 02:28:00,66.0,62.7,30.19,SW,225,57.0,57.0,89,0.10,,RA,0.10,VWS V13.01,2013-08-13 06:28:00,
2013-08-13 02:33:00,66.0,62.7,30.18,SW,225,2.9,2.9,89,0.10,,RA,0.10,VWS V13.01,2013-08-13 06:33:00,
2013-08-13 02:38:00,65.8,62.5,30.19,SSW,202,2.9,2.9,89,0.10,,RA,0.10,VWS V13.01,2013-08-13 06:38:00,
2013-08-13 02:43:00,66.0,62.7,30.19,SSE,158,3.3,3.3,89,0.10,,,0.10,VWS V13.01,2013-08-13 06:43:00,
2013-08-13 02:48:00,66.0,62.7,30.19,SW,225,3.3,3.3,89,0.10,,,0.10,VWS V13.01,2013-08-13 06:48:00,
2013-08-13 02:53:00,66.0,62.5,30.19,WSW,248,3.3,3.3,89,0.08,,,0.10,VWS V13.01,2013-08-13 06:53:00,
2013-08-13 02:58:00,65.8,62.5,30.18,WSW,248,3.3,3.3,89,0.02,,,0.10,VWS V13.01,2013-08-13 06:58:00,
2013-08-13 03:03:00,66.0,62.5,30.18,WSW,248,3.3,3.3,89,0.00,,-RA,0.10,VWS V13.01,2013-08-13 07:03:00,
2013-08-13 03:08:00,66.0,62.7,30.18,South,180,3.3,3.3,89,0.00,,-RA,0.10,VWS V13.01,2013-08-13 07:08:00,
2013-08-13 03:13:00,66.0,62.7,30.17,South,180,3.3,3.3,89,0.00,,-RA,0.10,VWS V13.01,2013-08-13 07:13:00,
2013-08-13 03:18:00,66.0,62.7,30.17,South,180,3.3,3.3,89,0.00,,-RA,0.10,VWS V13.01,2013-08-13 07:18:00,
2013-08-13 03:23:00,66.0,62.7,30.17,South,180,3.3,3.3,89,0.00,,-RA,0.10,VWS V13.01,2013-08-13 07:23:00,
2013-08-13 03:28:00,66.0,62.7,30.17,South,180,3.3,3.3,89,0.00,,-RA,0.10,VWS V13.01,2013-08-13 07:28:00,
2013-08-13 03:33:00,66.0,62.7,30.17,South,180,3.3,3.3,89,0.00,,-RA,0.10,VWS V13.01,2013-08-13 07:33:00,
2013-08-13 03:38:00,65.8,62.5,30.17,South,180,3.3,3.3,89,0.00,,-RA,0.10,VWS V13.01,2013-08-13 07:38:00,
2013-08-13 03:43:00,65.8,62.5,30.17,SE,135,1.1,2.0,89,0.00,,RA,0.10,VWS V13.01,2013-08-13 07:43:00,
2013-08-13 03:48:00,66.0,62.5,30.16,SE,135,1.1,2.0,89,0.00,,RA,0.10,VWS V13.01,2013-08-13 07:48:00,
2013-08-13 03:53:00,65.8,62.5,30.16,SSE,158,1.1,2.0,89,0.00,,RA,0.10,VWS V13.01,2013-08-13 07:53:00,
2013-08-13 03:58:00,65.8,62.7,30.16,SSE,158,1.1,2.0,89,0.00,,RA,0.10,VWS V13.01,2013-08-13 07:58:00,
2013-08-13 04:03:00,66.0,62.7,30.16,SSE,158,1.1,2.0,89,0.00,,-RA,0.10,VWS V13.01,2013-08-13 08:03:00,
2013-08-13 04:08:00,66.0,62.7,30.16,SSE,158,1.1,2.0,89,0.00,,-RA,0.10,VWS V13.01,2013-08-13 08:08:00,
2013-08-13 04:13:00,65.8,62.5,30.16,SSE,158,1.1,2.0,89,0.00,,-RA,0.10,VWS V13.01,2013-08-13 08:13:00,
2013-08-13 04:18:00,65.8,62.5,30.16,SW,225,1.1,2.0,89,0.00,,-RA,0.10,VWS V13.01,2013-08-13 08:18:00,
2013-08-13 04:23:00,65.8,62.5,30.16,SW,225,1.1,2.0,89,0.00,,-RA,0.10,VWS V13.01,2013-08-13 08:23:00,
2013-08-13 04:28:00,65.8,62.5,30.16,SW,225,1.1,2.0,89,0.00,,-RA,0.10,VWS V13.01,2013-08-13 08:28:00,
2013-08-13 04:33:00,65.8,62.5,30.16,SSE,158,1.1,2.0,89,0.00,,-RA,0.10,VWS V13.01,2013-08-13 08:33:00,
2013-08-13 04:38:00,65.8,62.5,30.16,SSE,158,1.1,2.0,89,0.00,,-RA,0.10,VWS V13.01,2013-08-13 08:38:00,
2013-08-13 04:43:00,65.8,62.5,30.16,SSE,158,1.1,2.0,89,0.00,,-RA,0.10,VWS V13.01,2013-08-13 08:43:00,
2013-08-13 04:48:00,65.8,62.5,30.17,SSE,158,1.1,2.0,89,0.00,,-RA,0.10,VWS V13.01,2013-08-13 08:48:00,
2013-08-13 04:53:00,65.8,62.5,30.16,SSE,158,1.1,2.0,89,0.00,,-RA,0.10,VWS V13.01,2013-08-13 08:53:00,
2013-08-13 04:58:00,65.8,62.5,30.16,SSE,158,1.1,2.0,89,0.00,,-RA,0.10,VWS V13.01,2013-08-13 08:58:00,
2013-08-13 05:03:00,65.8,62.5,30.17,SSE,158,1.1,2.0,89,0.00,,,0.10,VWS V13.01,2013-08-13 09:03:00,
2013-08-13 05:08:00,65.8,62.5,30.16,SW,225,1.1,2.0,89,0.00,,,0.10,VWS V13.01,2013-08-13 09:08:00,
2013-08-13 05:13:00,65.8,62.5,30.16,SSW,202,1.1,2.0,89,0.00,,,0.10,VWS V13.01,2013-08-13 09:13:00,
2013-08-13 05:18:00,65.8,62.5,30.15,South,180,0.8,2.0,89,0.00,,,0.10,VWS V13.01,2013-08-13 09:18:00,
2013-08-13 05:23:00,65.8,62.5,30.15,South,180,0.8,2.0,89,0.00,,,0.10,VWS V13.01,2013-08-13 09:23:00,
2013-08-13 05:28:00,65.8,62.5,30.15,SSE,158,0.8,2.0,89,0.00,,,0.10,VWS V13.01,2013-08-13 09:28:00,
2013-08-13 05:33:00,65.8,62.5,30.15,South,180,0.8,2.0,89,0.00,,,0.10,VWS V13.01,2013-08-13 09:33:00,
2013-08-13 05:38:00,65.8,62.5,30.15,WSW,248,0.8,2.0,89,0.00,,,0.10,VWS V13.01,2013-08-13 09:38:00,
2013-08-13 05:43:00,65.6,62.5,30.15,SW,225,0.8,2.0,89,0.00,,,0.10,VWS V13.01,2013-08-13 09:43:00,
2013-08-13 05:48:00,65.6,62.3,30.15,SSW,202,0.8,2.0,89,0.00,,,0.10,VWS V13.01,2013-08-13 09:48:00,
2013-08-13 05:53:00,65.6,62.5,30.16,SSW,202,0.8,2.0,89,0.00,,,0.10,VWS V13.01,2013-08-13 09:53:00,
2013-08-13 05:58:00,65.6,62.5,30.16,WSW,248,0.8,2.0,89,0.00,,,0.10,VWS V13.01,2013-08-13 09:58:00,
2013-08-13 06:04:00,65.6,62.3,30.15,SSE,158,0.8,2.0,89,0.00,,,0.10,VWS V13.01,2013-08-13 10:04:00,
2013-08-13 06:09:00,65.6,62.3,30.15,SW,225,0.8,2.0,89,0.00,,,0.10,VWS V13.01,2013-08-13 10:09:00,
2013-08-13 06:14:00,65.6,62.3,30.15,SSW,202,0.8,2.0,89,0.00,,,0.10,VWS V13.01,2013-08-13 10:14:00,
2013-08-13 06:19:00,65.6,62.3,30.16,WSW,248,0.8,2.0,89,0.00,,,0.10,VWS V13.01,2013-08-13 10:19:00,
2013-08-13 06:24:00,65.6,62.3,30.16,WSW,248,0.8,2.0,89,0.00,,,0.10,VWS V13.01,2013-08-13 10:24:00,
2013-08-13 06:29:00,65.6,62.3,30.16,SW,225,0.8,2.0,89,0.00,,,0.10,VWS V13.01,2013-08-13 10:29:00,
2013-08-13 06:34:00,65.6,62.3,30.16,SW,225,0.8,2.0,89,0.00,,,0.10,VWS V13.01,2013-08-13 10:34:00,
2013-08-13 06:39:00,65.6,62.3,30.16,SSE,158,0.8,2.0,89,0.00,,,0.10,VWS V13.01,2013-08-13 10:39:00,
2013-08-13 06:44:00,65.6,62.3,30.16,SSE,158,0.8,2.0,89,0.00,,RA,0.10,VWS V13.01,2013-08-13 10:44:00,
2013-08-13 06:49:00,65.6,62.3,30.16,SSE,158,0.8,2.0,89,0.00,,RA,0.10,VWS V13.01,2013-08-13 10:49:00,
2013-08-13 06:54:00,65.6,62.1,30.15,SSE,158,0.8,2.0,89,0.00,,RA,0.10,VWS V13.01,2013-08-13 10:54:00,
2013-08-13 06:59:00,65.4,62.3,30.15,SSE,158,0.8,2.0,89,0.00,,RA,0.10,VWS V13.01,2013-08-13 10:59:00,
2013-08-13 07:04:00,65.6,62.1,30.15,SSE,158,0.8,2.0,89,0.00,,-RA,0.10,VWS V13.01,2013-08-13 11:04:00,
2013-08-13 07:09:00,65.4,62.1,30.16,SSE,158,0.8,2.0,89,0.00,,-RA,0.10,VWS V13.01,2013-08-13 11:09:00,
2013-08-13 07:14:00,65.4,62.1,30.16,SSE,158,0.8,2.0,89,0.04,,-RA,0.14,VWS V13.01,2013-08-13 11:14:00,
2013-08-13 07:19:00,65.4,62.1,30.16,SSE,158,0.8,2.0,89,0.04,,-RA,0.14,VWS V13.01,2013-08-13 11:19:00,
2013-08-13 07:24:00,65.4,62.3,30.15,SSE,158,0.8,2.0,89,0.04,,-RA,0.14,VWS V13.01,2013-08-13 11:24:00,
2013-08-13 07:29:00,65.6,62.1,30.15,SSE,158,0.8,2.0,89,0.04,,-RA,0.14,VWS V13.01,2013-08-13 11:29:00,
2013-08-13 07:34:00,65.4,62.3,30.16,WSW,248,0.8,2.0,89,0.04,,-RA,0.14,VWS V13.01,2013-08-13 11:34:00,
2013-08-13 07:39:00,65.4,62.3,30.15,SSW,202,0.8,2.0,89,0.04,,-RA,0.14,VWS V13.01,2013-08-13 11:39:00,
2013-08-13 07:44:00,65.6,62.3,30.16,West,270,0.8,2.0,89,0.04,,RA,0.14,VWS V13.01,2013-08-13 11:44:00,
2013-08-13 07:49:00,65.6,62.3,30.16,West,270,0.8,2.0,89,0.04,,RA,0.14,VWS V13.01,2013-08-13 11:49:00,
2013-08-13 07:54:00,65.6,62.1,30.15,South,180,1.5,2.0,89,0.04,,RA,0.14,VWS V13.01,2013-08-13 11:54:00,
2013-08-13 07:59:00,65.4,62.1,30.15,South,180,1.5,2.0,89,0.04,,RA,0.14,VWS V13.01,2013-08-13 11:59:00,
2013-08-13 08:04:00,65.6,62.5,30.15,SSE,158,1.5,2.0,89,0.04,,RA,0.14,VWS V13.01,2013-08-13 12:04:00,
2013-08-13 08:09:00,65.8,62.7,30.16,SSW,202,1.5,2.0,89,0.00,,RA,0.14,VWS V13.01,2013-08-13 12:09:00,
2013-08-13 08:14:00,66.0,62.5,30.16,South,180,1.5,2.0,89,0.00,,-RA,0.14,VWS V13.01,2013-08-13 12:14:00,
2013-08-13 08:20:00,66.0,62.5,30.16,North,0,0.8,2.0,89,0.00,,-RA,0.14,VWS V13.01,2013-08-13 12:20:00,
2013-08-13 08:25:00,66.0,62.7,30.17,WSW,248,0.8,2.0,89,0.00,,-RA,0.14,VWS V13.01,2013-08-13 12:25:00,
2013-08-13 08:30:00,66.0,62.7,30.17,SW,225,0.6,2.0,89,0.00,,-RA,0.14,VWS V13.01,2013-08-13 12:30:00,
2013-08-13 08:35:00,66.0,62.7,30.17,South,180,0.6,2.0,89,0.00,,-RA,0.14,VWS V13.01,2013-08-13 12:35:00,
2013-08-13 08:40:00,66.0,62.7,30.17,SSE,158,0.6,2.0,89,0.00,,-RA,0.14,VWS V13.01,2013-08-13 12:40:00,
2013-08-13 08:45:00,66.0,62.7,30.16,SSE,158,0.6,2.0,89,0.00,,-RA,0.14,VWS V13.01,2013-08-13 12:45:00,
2013-08-13 08:50:00,66.0,62.7,30.16,WSW,248,0.6,2.0,89,0.00,,-RA,0.14,VWS V13.01,2013-08-13 12:50:00,
2013-08-13 08:55:00,66.0,62.9,30.16,WSW,248,0.6,2.0,89,0.00,,-RA,0.14,VWS V13.01,2013-08-13 12:55:00,
2013-08-13 09:00:00,66.2,63.0,30.16,SSW,202,0.6,2.0,89,0.00,,-RA,0.14,VWS V13.01,2013-08-13 13:00:00,
2013-08-13 09:05:00,66.3,63.0,30.17,West,270,0.6,2.0,89,0.00,,OVC048,0.14,VWS V13.01,2013-08-13 13:05:00,
2013-08-13 09:10:00,66.3,63.0,30.17,South,180,0.6,2.0,89,0.00,,OVC048,0.14,VWS V13.01,2013-08-13 13:10:00,
2013-08-13 09:15:00,66.3,63.0,30.17,SSE,158,0.8,2.0,89,0.00,,OVC048,0.14,VWS V13.01,2013-08-13 13:15:00,
2013-08-13 09:21:00,66.3,63.0,30.17,West,270,0.8,2.0,89,0.00,,OVC048,0.14,VWS V13.01,2013-08-13 13:21:00,
2013-08-13 09:26:00,66.5,63.2,30.17,West,270,2.2,2.2,89,0.04,,OVC048,0.19,VWS V13.01,2013-08-13 13:26:00,
2013-08-13 09:31:00,66.3,63.0,30.17,WSW,248,2.2,2.2,89,0.04,,OVC048,0.19,VWS V13.01,2013-08-13 13:31:00,
2013-08-13 09:36:00,66.5,63.4,30.16,SW,225,0.8,2.0,89,0.04,,OVC048,0.19,VWS V13.01,2013-08-13 13:36:00,
2013-08-13 09:41:00,66.7,63.2,30.17,South,180,1.1,2.0,89,0.04,,-RA,0.19,VWS V13.01,2013-08-13 13:41:00,
2013-08-13 09:46:00,66.7,63.2,30.17,SW,225,1.1,2.0,89,0.08,,-RA,0.22,VWS V13.01,2013-08-13 13:46:00,
2013-08-13 09:51:00,66.5,63.2,30.16,South,180,1.1,2.0,89,0.08,,-RA,0.22,VWS V13.01,2013-08-13 13:51:00,
2013-08-13 09:56:00,66.3,63.2,30.16,WSW,248,1.1,2.0,89,0.08,,-RA,0.22,VWS V13.01,2013-08-13 13:56:00,
2013-08-13 10:01:00,66.5,63.2,30.16,WSW,248,2.2,2.2,89,0.12,,-RA,0.26,VWS V13.01,2013-08-13 14:01:00,
2013-08-13 10:06:00,66.5,63.4,30.16,SW,225,0.8,2.0,89,0.12,,-RA,0.26,VWS V13.01,2013-08-13 14:06:00,
2013-08-13 10:11:00,66.7,63.4,30.17,WNW,292,0.8,2.0,89,0.12,,-RA,0.26,VWS V13.01,2013-08-13 14:11:00,
2013-08-13 10:16:00,66.7,63.6,30.16,NW,315,0.8,2.0,89,0.12,,-RA,0.26,VWS V13.01,2013-08-13 14:16:00,
2013-08-13 10:21:00,66.9,63.6,30.16,WNW,292,1.7,2.0,89,0.08,,-RA,0.26,VWS V13.01,2013-08-13 14:21:00,
2013-08-13 10:26:00,67.1,63.8,30.17,WSW,248,0.8,2.0,89,0.08,,-RA,0.26,VWS V13.01,2013-08-13 14:26:00,
2013-08-13 10:31:00,67.2,63.5,30.16,SW,225,0.8,2.0,88,0.08,,-RA,0.26,VWS V13.01,2013-08-13 14:31:00,
2013-08-13 10:36:00,67.2,63.7,30.16,WSW,248,0.6,2.0,88,0.08,,-RA,0.26,VWS V13.01,2013-08-13 14:36:00,
2013-08-13 10:41:00,67.6,64.1,30.16,WSW,248,0.6,2.0,88,0.08,,OVC060,0.26,VWS V13.01,2013-08-13 14:41:00,
2013-08-13 10:46:00,68.1,64.7,30.16,SW,225,0.6,2.0,89,0.04,,OVC060,0.26,VWS V13.01,2013-08-13 14:46:00,
2013-08-13 10:51:00,68.3,64.9,30.16,South,180,1.3,2.0,89,0.04,,OVC060,0.26,VWS V13.01,2013-08-13 14:51:00,
2013-08-13 10:56:00,68.3,64.9,30.16,NW,315,1.7,2.0,89,0.00,,OVC060,0.26,VWS V13.01,2013-08-13 14:56:00,
2013-08-13 11:01:00,68.3,64.9,30.17,SW,225,0.8,2.0,89,0.00,,OVC060,0.26,VWS V13.01,2013-08-13 15:01:00,
2013-08-13 11:06:00,68.3,64.9,30.16,SW,225,2.9,2.9,89,0.00,,-RA,0.26,VWS V13.01,2013-08-13 15:06:00,
2013-08-13 11:11:00,68.3,65.1,30.16,WSW,248,4.4,4.4,89,0.00,,-RA,0.26,VWS V13.01,2013-08-13 15:11:00,
2013-08-13 11:16:00,68.3,65.3,30.16,WNW,292,3.8,3.8,89,0.00,,-RA,0.26,VWS V13.01,2013-08-13 15:16:00,
2013-08-13 11:21:00,68.9,65.6,30.16,SW,225,3.3,3.3,89,0.00,,-RA,0.26,VWS V13.01,2013-08-13 15:21:00,
2013-08-13 11:26:00,69.4,66.0,30.16,WSW,248,2.0,2.0,89,0.00,,-RA,0.26,VWS V13.01,2013-08-13 15:26:00,
2013-08-13 11:31:00,69.6,66.2,30.16,West,270,2.6,2.6,89,0.00,,-RA,0.26,VWS V13.01,2013-08-13 15:31:00,
2013-08-13 11:36:00,69.8,66.4,30.16,SSW,202,1.1,2.0,89,0.00,,-RA,0.26,VWS V13.01,2013-08-13 15:36:00,
2013-08-13 11:41:00,69.9,66.7,30.16,WNW,292,1.1,2.0,89,0.00,,-RA,0.26,VWS V13.01,2013-08-13 15:41:00,
2013-08-13 11:46:00,70.3,66.9,30.16,West,270,1.7,2.0,89,0.00,,-RA,0.26,VWS V13.01,2013-08-13 15:46:00,
2013-08-13 11:51:00,70.3,66.6,30.16,WSW,248,2.0,2.0,88,0.00,,-RA,0.26,VWS V13.01,2013-08-13 15:51:00,
2013-08-13 11:56:00,70.3,66.8,30.16,West,270,2.4,2.4,88,0.00,,-RA,0.26,VWS V13.01,2013-08-13 15:56:00,
2013-08-13 12:01:00,71.0,67.5,30.16,NW,315,2.4,2.4,88,0.00,,OVC070,0.26,VWS V13.01,2013-08-13 16:01:00,
2013-08-13 12:06:00,71.4,68.0,30.16,West,270,2.2,2.2,88,0.00,,OVC070,0.26,VWS V13.01,2013-08-13 16:06:00,
2013-08-13 12:11:00,71.9,68.3,30.16,SSW,202,2.2,2.2,87,0.00,,OVC070,0.26,VWS V13.01,2013-08-13 16:11:00,
2013-08-13 12:16:00,71.9,68.2,30.16,NW,315,57.0,57.0,87,0.00,,OVC070,0.26,VWS V13.01,2013-08-13 16:16:00,
2013-08-13 12:21:00,72.3,68.1,30.15,NW,315,57.0,57.0,87,0.00,,OVC070,0.26,VWS V13.01,2013-08-13 16:21:00,
2013-08-13 12:26:00,72.5,67.5,30.15,West,270,2.2,2.2,86,0.00,,OVC070,0.26,VWS V13.01,2013-08-13 16:26:00,
2013-08-13 12:31:00,72.5,67.3,30.15,WNW,292,2.6,2.6,86,0.00,,OVC070,0.26,VWS V13.01,2013-08-13 16:31:00,
2013-08-13 12:36:00,72.1,67.3,30.15,West,270,1.3,2.0,85,0.00,,OVC070,0.26,VWS V13.01,2013-08-13 16:36:00,
2013-08-13 12:41:00,71.7,66.9,30.15,WNW,292,1.3,2.0,85,0.00,,OVC080,0.26,VWS V13.01,2013-08-13 16:41:00,
2013-08-13 12:46:00,71.4,66.7,30.15,West,270,1.5,2.0,85,0.00,,OVC080,0.26,VWS V13.01,2013-08-13 16:46:00,
2013-08-13 12:51:00,71.2,66.5,30.15,NW,315,0.6,2.0,85,0.00,,OVC080,0.26,VWS V13.01,2013-08-13 16:51:00,
2013-08-13 12:56:00,71.0,66.8,30.15,West,270,2.9,2.9,85,0.00,,OVC080,0.26,VWS V13.01,2013-08-13 16:56:00,
2013-08-13 13:01:00,71.0,67.5,30.15,WSW,248,57.0,57.0,85,0.00,,OVC080,0.26,VWS V13.01,2013-08-13 17:01:00,
2013-08-13 13:06:00,72.3,67.8,30.15,West,270,1.7,2.0,85,0.00,,OVC080,0.26,VWS V13.01,2013-08-13 17:06:00,
2013-08-13 13:12:00,73.2,67.7,30.15,WSW,248,0.8,2.0,83,0.00,,OVC080,0.26,VWS V13.01,2013-08-13 17:12:00,
2013-08-13 13:17:00,73.9,67.5,30.15,North,0,1.5,2.0,81,0.00,,OVC080,0.26,VWS V13.01,2013-08-13 17:17:00,
2013-08-13 13:22:00,75.0,67.9,30.15,NW,315,57.0,57.0,79,0.00,,OVC080,0.26,VWS V13.01,2013-08-13 17:22:00,
2013-08-13 13:28:00,75.0,67.3,30.15,WSW,248,6.7,6.7,78,0.00,,OVC080,0.26,VWS V13.01,2013-08-13 17:28:00,
2013-08-13 13:33:00,75.2,67.2,30.15,NW,315,2.4,2.4,76,0.00,,BKN090,0.26,VWS V13.01,2013-08-13 17:33:00,
2013-08-13 13:38:00,75.3,67.2,30.15,NW,315,2.0,2.0,76,0.00,,BKN090,0.26,VWS V13.01,2013-08-13 17:38:00,
2013-08-13 13:43:00,75.5,66.8,30.15,NNW,338,4.2,4.2,75,0.00,,BKN090,0.26,VWS V13.01,2013-08-13 17:43:00,
2013-08-13 13:48:00,75.9,66.8,30.15,NNW,338,4.2,4.2,74,0.00,,BKN090,0.26,VWS V13.01,2013-08-13 17:48:00,
2013-08-13 13:53:00,75.9,66.5,30.15,NNW,338,5.5,5.5,73,0.00,,BKN090,0.26,VWS V13.01,2013-08-13 17:53:00,
2013-08-13 13:58:00,76.2,66.1,30.15,WSW,248,5.5,5.5,72,0.00,,BKN090,0.26,VWS V13.01,2013-08-13 17:58:00,
2013-08-13 14:03:00,76.2,66.0,30.15,NW,315,4.0,4.0,72,0.00,,SCT060,0.26,VWS V13.01,2013-08-13 18:03:00,
2013-08-13 14:08:00,76.2,66.5,30.15,NW,315,5.3,5.3,71,0.00,,SCT060,0.26,VWS V13.01,2013-08-13 18:08:00,
2013-08-13 14:13:00,76.2,66.1,30.15,West,270,1.7,2.0,72,0.00,,SCT060,0.26,VWS V13.01,2013-08-13 18:13:00,
2013-08-13 14:18:00,76.4,66.5,30.15,NW,315,4.9,4.9,71,0.00,,SCT060,0.26,VWS V13.01,2013-08-13 18:18:00,
2013-08-13 14:23:00,76.2,65.8,30.15,NW,315,4.6,4.6,72,0.00,,SCT060,0.26,VWS V13.01,2013-08-13 18:23:00,
2013-08-13 14:28:00,75.9,66.0,30.15,WNW,292,7.8,7.8,71,0.00,,SCT060,0.26,VWS V13.01,2013-08-13 18:28:00,
2013-08-13 14:33:00,75.7,66.0,30.15,NW,315,57.0,57.0,72,0.00,,SCT095,0.26,VWS V13.01,2013-08-13 18:33:00,
2013-08-13 14:38:00,75.7,64.8,30.14,NNW,338,5.8,5.8,72,0.00,,SCT095,0.26,VWS V13.01,2013-08-13 18:38:00,
2013-08-13 14:43:00,75.5,65.8,30.14,West,270,2.6,2.6,72,0.00,,BKN060,0.26,VWS V13.01,2013-08-13 18:43:00,
2013-08-13 14:48:00,75.7,66.0,30.14,NW,315,2.0,2.0,72,0.00,,BKN060,0.26,VWS V13.01,2013-08-13 18:48:00,
2013-08-13 14:53:00,75.9,66.4,30.14,WNW,292,4.0,4.0,72,0.00,,BKN060,0.26,VWS V13.01,2013-08-13 18:53:00,
2013-08-13 14:58:00,76.2,66.1,30.14,WNW,292,3.8,3.8,71,0.00,,BKN060,0.26,VWS V13.01,2013-08-13 18:58:00,
2013-08-13 15:03:00,76.2,65.7,30.14,NW,315,2.9,2.9,71,0.00,,OVC060,0.26,VWS V13.01,2013-08-13 19:03:00,
2013-08-13 15:08:00,76.1,65.4,30.14,WSW,248,1.5,2.0,70,0.00,,OVC060,0.26,VWS V13.01,2013-08-13 19:08:00,
2013-08-13 15:13:00,75.7,65.6,30.14,SE,135,2.9,2.9,70,0.00,,OVC060,0.26,VWS V13.01,2013-08-13 19:13:00,
2013-08-13 15:18:00,75.7,65.8,30.13,NW,315,0.6,2.0,70,0.00,,OVC060,0.26,VWS V13.01,2013-08-13 19:18:00,
2013-08-13 15:23:00,75.7,65.8,30.13,NW,315,4.9,4.9,70,0.00,,OVC060,0.26,VWS V13.01,2013-08-13 19:23:00,
2013-08-13 15:28:00,75.3,65.7,30.13,SW,225,0.4,2.0,72,0.00,,OVC060,0.26,VWS V13.01,2013-08-13 19:28:00,
2013-08-13 15:33:00,75.3,65.4,30.13,North,0,57.0,57.0,72,0.00,,OVC060,0.26,VWS V13.01,2013-08-13 19:33:00,
2013-08-13 15:38:00,75.2,65.7,30.13,WNW,292,3.5,3.5,72,0.00,,OVC060,0.26,VWS V13.01,2013-08-13 19:38:00,
2013-08-13 15:43:00,75.5,65.6,30.13,West,270,5.1,5.1,72,0.00,,OVC090,0.26,VWS V13.01,2013-08-13 19:43:00,
2013-08-13 15:48:00,75.7,65.4,30.13,WSW,248,3.8,3.8,71,0.00,,OVC090,0.26,VWS V13.01,2013-08-13 19:48:00,
2013-08-13 15:53:00,75.5,65.4,30.13,WNW,292,2.6,2.6,71,0.00,,OVC090,0.26,VWS V13.01,2013-08-13 19:53:00,
2013-08-13 15:58:00,75.7,65.3,30.13,WSW,248,2.2,2.2,71,0.00,,OVC090,0.26,VWS V13.01,2013-08-13 19:58:00,
2013-08-13 16:03:00,75.7,65.0,30.12,West,270,4.9,4.9,71,0.00,,OVC080,0.26,VWS V13.01,2013-08-13 20:03:00,
2013-08-13 16:08:00,74.8,65.2,30.13,NW,315,3.5,3.5,71,0.00,,OVC080,0.26,VWS V13.01,2013-08-13 20:08:00,
2013-08-13 16:13:00,74.4,64.8,30.13,NNW,338,2.9,2.9,72,0.00,,OVC080,0.26,VWS V13.01,2013-08-13 20:13:00,
2013-08-13 16:18:00,74.3,65.1,30.12,NW,315,1.5,2.0,73,0.00,,OVC080,0.26,VWS V13.01,2013-08-13 20:18:00,
2013-08-13 16:23:00,74.1,65.3,30.12,NNW,338,0.2,2.0,74,0.00,,OVC080,0.26,VWS V13.01,2013-08-13 20:23:00,
2013-08-13 16:28:00,74.1,64.9,30.12,WNW,292,5.5,5.5,74,0.00,,OVC080,0.26,VWS V13.01,2013-08-13 20:28:00,
2013-08-13 16:33:00,74.1,64.9,30.12,North,0,2.4,2.4,74,0.00,,OVC080,0.26,VWS V13.01,2013-08-13 20:33:00,
2013-08-13 16:38:00,74.1,64.9,30.12,WNW,292,4.2,4.2,73,0.00,,OVC080,0.26,VWS V13.01,2013-08-13 20:38:00,
2013-08-13 16:43:00,74.1,65.1,30.12,West,270,3.1,3.1,73,0.00,,OVC080,0.26,VWS V13.01,2013-08-13 20:43:00,
2013-08-13 16:48:00,73.9,65.3,30.12,WNW,292,3.1,3.1,74,0.00,,OVC080,0.26,VWS V13.01,2013-08-13 20:48:00,
2013-08-13 16:53:00,73.9,65.1,30.12,NW,315,4.4,4.4,74,0.00,,OVC080,0.26,VWS V13.01,2013-08-13 20:53:00,
2013-08-13 16:58:00,73.9,64.7,30.11,WNW,292,2.6,2.6,73,0.00,,OVC080,0.26,VWS V13.01,2013-08-13 20:58:00,
2013-08-13 17:03:00,73.9,64.7,30.11,NW,315,5.5,5.5,73,0.00,,OVC100,0.26,VWS V13.01,2013-08-13 21:03:00,
2013-08-13 17:08:00,73.7,64.2,30.12,WSW,248,5.5,5.5,73,0.00,,OVC100,0.26,VWS V13.01,2013-08-13 21:08:00,
2013-08-13 17:13:00,73.2,64.4,30.13,West,270,4.4,4.4,73,0.00,,OVC100,0.26,VWS V13.01,2013-08-13 21:13:00,
2013-08-13 17:18:00,73.0,64.0,30.12,West,270,2.2,2.2,74,0.00,,OVC100,0.26,VWS V13.01,2013-08-13 21:18:00,
2013-08-13 17:23:00,72.6,63.8,30.12,NW,315,2.0,2.0,74,0.00,,OVC100,0.26,VWS V13.01,2013-08-13 21:23:00,
2013-08-13 17:28:00,72.5,64.1,30.13,SW,225,2.4,2.4,74,0.00,,OVC100,0.26,VWS V13.01,2013-08-13 21:28:00,
2013-08-13 17:33:00,72.5,64.1,30.13,NW,315,3.1,3.1,75,0.00,,SCT100,0.26,VWS V13.01,2013-08-13 21:33:00,
2013-08-13 17:38:00,72.5,64.5,30.13,WSW,248,4.2,4.2,75,0.00,,SCT100,0.26,VWS V13.01,2013-08-13 21:38:00,
2013-08-13 17:43:00,72.6,64.6,30.13,WSW,248,0.4,2.0,76,0.00,,SCT100,0.26,VWS V13.01,2013-08-13 21:43:00,
2013-08-13 17:48:00,72.6,64.6,30.13,NW,315,0.2,2.0,76,0.00,,SCT100,0.26,VWS V13.01,2013-08-13 21:48:00,
2013-08-13 17:53:00,72.6,64.6,30.13,West,270,0.8,2.0,76,0.00,,SCT100,0.26,VWS V13.01,2013-08-13 21:53:00,
2013-08-13 17:58:00,72.5,64.3,30.13,West,270,3.5,3.5,76,0.00,,SCT100,0.26,VWS V13.01,2013-08-13 21:58:00,
2013-08-13 18:03:00,72.3,64.1,30.14,NNE,22,0.4,2.0,76,0.00,,BKN110,0.26,VWS V13.01,2013-08-13 22:03:00,
2013-08-13 18:08:00,72.1,64.1,30.14,NW,315,5.3,5.3,76,0.00,,BKN110,0.26,VWS V13.01,2013-08-13 22:08:00,
2013-08-13 18:13:00,71.6,63.6,30.15,WNW,292,5.3,5.3,77,0.00,,BKN110,0.26,VWS V13.01,2013-08-13 22:13:00,
2013-08-13 18:18:00,71.6,63.0,30.15,NW,315,1.1,2.0,77,0.00,,BKN110,0.26,VWS V13.01,2013-08-13 22:18:00,
2013-08-13 18:23:00,70.3,62.3,30.15,NW,315,1.1,2.0,77,0.00,,BKN110,0.26,VWS V13.01,2013-08-13 22:23:00,
2013-08-13 18:28:00,69.6,61.9,30.15,NW,315,0.6,2.0,78,0.02,,BKN110,0.29,VWS V13.01,2013-08-13 22:28:00,
2013-08-13 18:33:00,68.9,61.5,30.15,NW,315,0.6,2.0,79,0.02,,SCT095,0.29,VWS V13.01,2013-08-13 22:33:00,
2013-08-13 18:38:00,68.1,61.4,30.15,NW,315,0.6,2.0,79,0.02,,SCT095,0.29,VWS V13.01,2013-08-13 22:38:00,
2013-08-13 18:43:00,67.8,61.6,30.15,NW,315,0.6,2.0,81,0.02,,SCT095,0.29,VWS V13.01,2013-08-13 22:43:00,
2013-08-13 18:48:00,67.6,61.2,30.15,NW,315,57.0,57.0,81,0.02,,SCT095,0.29,VWS V13.01,2013-08-13 22:48:00,
2013-08-13 18:53:00,67.2,61.5,30.15,NW,315,57.0,57.0,82,0.02,,SCT095,0.29,VWS V13.01,2013-08-13 22:53:00,
2013-08-13 18:58:00,67.2,61.6,30.15,NW,315,57.0,57.0,82,0.02,,SCT095,0.29,VWS V13.01,2013-08-13 22:58:00,
2013-08-13 19:03:00,66.7,61.4,30.15,West,270,57.0,57.0,83,0.02,,BKN047,0.29,VWS V13.01,2013-08-13 23:03:00,
2013-08-13 19:09:00,66.3,61.4,30.15,West,270,57.0,57.0,84,0.02,,BKN047,0.29,VWS V13.01,2013-08-13 23:09:00,
2013-08-13 19:14:00,66.3,61.3,30.15,WNW,292,57.0,57.0,84,0.02,,BKN047,0.29,VWS V13.01,2013-08-13 23:14:00,
2013-08-13 19:19:00,66.2,61.3,30.15,WNW,292,57.0,57.0,84,0.02,,BKN047,0.29,VWS V13.01,2013-08-13 23:19:00,
2013-08-13 19:24:00,66.2,61.2,30.16,WNW,292,57.0,57.0,84,0.02,,BKN047,0.29,VWS V13.01,2013-08-13 23:24:00,
2013-08-13 19:29:00,66.3,61.3,30.15,WNW,292,57.0,57.0,84,0.00,,BKN047,0.29,VWS V13.01,2013-08-13 23:29:00,
2013-08-13 19:34:00,66.2,61.2,30.15,WNW,292,57.0,57.0,84,0.00,,RA,0.29,VWS V13.01,2013-08-13 23:34:00,
2013-08-13 19:39:00,66.0,61.6,30.15,WNW,292,57.0,57.0,84,0.00,,RA,0.29,VWS V13.01,2013-08-13 23:39:00,
2013-08-13 19:44:00,66.0,61.0,30.15,WNW,292,57.0,57.0,85,0.00,,RA,0.29,VWS V13.01,2013-08-13 23:44:00,
2013-08-13 19:45:00,66.0,61.4,30.15,WNW,292,57.0,57.0,85,0.00,,RA,0.29,VWS V13.01,2013-08-13 23:45:00,
2013-08-13 19:50:00,66.0,61.7,30.14,WNW,292,57.0,57.0,86,0.00,,RA,0.29,VWS V13.01,2013-08-13 23:50:00,
2013-08-13 19:55:00,66.0,61.7,30.15,WNW,292,57.0,57.0,86,0.00,,RA,0.29,VWS V13.01,2013-08-13 23:55:00,
2013-08-13 20:00:00,66.0,61.7,30.14,WNW,292,57.0,57.0,86,0.00,,RA,0.29,VWS V13.01,2013-08-14 00:00:00,
2013-08-13 20:05:00,66.0,61.5,30.15,WNW,292,57.0,57.0,86,0.00,,RA,0.29,VWS V13.01,2013-08-14 00:05:00,
2013-08-13 20:11:00,65.8,61.5,30.15,NW,315,57.0,57.0,86,0.00,,BKN085,0.29,VWS V13.01,2013-08-14 00:11:00,
2013-08-13 20:16:00,65.4,61.1,30.15,NW,315,57.0,57.0,86,0.00,,BKN085,0.29,VWS V13.01,2013-08-14 00:16:00,
2013-08-13 20:21:00,65.3,60.8,30.15,WNW,292,57.0,57.0,86,0.00,,BKN085,0.29,VWS V13.01,2013-08-14 00:21:00,
2013-08-13 20:26:00,65.1,61.0,30.15,WNW,292,57.0,57.0,87,0.00,,BKN085,0.29,VWS V13.01,2013-08-14 00:26:00,
2013-08-13 20:31:00,65.1,61.1,30.15,NW,315,57.0,57.0,87,0.00,,BKN085,0.29,VWS V13.01,2013-08-14 00:31:00,
2013-08-13 20:36:00,64.9,60.9,30.15,WSW,248,57.0,57.0,87,0.00,,BKN085,0.29,VWS V13.01,2013-08-14 00:36:00,
2013-08-13 20:41:00,64.9,60.9,30.15,WSW,248,57.0,57.0,87,0.00,,,0.29,VWS V13.01,2013-08-14 00:41:00,
2013-08-13 20:46:00,64.9,60.9,30.15,NW,315,57.0,57.0,87,0.00,,,0.29,VWS V13.01,2013-08-14 00:46:00,
2013-08-13 20:51:00,64.7,60.9,30.15,WNW,292,57.0,57.0,87,0.00,,,0.29,VWS V13.01,2013-08-14 00:51:00,
2013-08-13 20:56:00,64.7,60.8,30.15,WNW,292,57.0,57.0,87,0.00,,,0.29,VWS V13.01,2013-08-14 00:56:00,
2013-08-13 21:01:00,64.5,60.5,30.15,WNW,292,57.0,57.0,87,0.00,,,0.29,VWS V13.01,2013-08-14 01:01:00,
2013-08-13 21:06:00,64.5,60.5,30.15,WNW,292,57.0,57.0,87,0.00,,OVC085,0.29,VWS V13.01,2013-08-14 01:06:00,
2013-08-13 21:11:00,64.2,60.3,30.16,North,0,57.0,57.0,87,0.00,,OVC085,0.29,VWS V13.01,2013-08-14 01:11:00,
2013-08-13 21:16:00,64.2,60.1,30.16,WNW,292,57.0,57.0,87,0.00,,OVC085,0.29,VWS V13.01,2013-08-14 01:16:00,
2013-08-13 21:21:00,64.0,60.1,30.16,WNW,292,57.0,57.0,87,0.00,,OVC085,0.29,VWS V13.01,2013-08-14 01:21:00,
2013-08-13 21:26:00,64.0,60.1,30.16,WNW,292,57.0,57.0,87,0.00,,OVC085,0.29,VWS V13.01,2013-08-14 01:26:00,
2013-08-13 21:31:00,64.0,60.1,30.16,WNW,292,57.0,57.0,87,0.00,,CLR,0.29,VWS V13.01,2013-08-14 01:31:00,
2013-08-13 21:36:00,63.8,60.1,30.16,WNW,292,57.0,57.0,87,0.00,,CLR,0.29,VWS V13.01,2013-08-14 01:36:00,
2013-08-13 21:41:00,63.8,59.7,30.16,WNW,292,57.0,57.0,87,0.00,,CLR,0.29,VWS V13.01,2013-08-14 01:41:00,
2013-08-13 21:47:00,63.6,59.7,30.16,WNW,292,57.0,57.0,87,0.00,,CLR,0.29,VWS V13.01,2013-08-14 01:47:00,
2013-08-13 21:52:00,63.6,59.7,30.16,WNW,292,57.0,57.0,87,0.00,,CLR,0.29,VWS V13.01,2013-08-14 01:52:00,
2013-08-13 21:57:00,63.5,59.6,30.17,WNW,292,57.0,57.0,87,0.00,,CLR,0.29,VWS V13.01,2013-08-14 01:57:00,
2013-08-13 22:02:00,63.3,59.7,30.17,WNW,292,57.0,57.0,87,0.00,,CLR,0.29,VWS V13.01,2013-08-14 02:02:00,
2013-08-13 22:07:00,63.3,59.4,30.16,North,0,57.0,57.0,87,0.00,,CLR,0.29,VWS V13.01,2013-08-14 02:07:00,
2013-08-13 22:12:00,63.3,59.4,30.17,WNW,292,57.0,57.0,87,0.00,,CLR,0.29,VWS V13.01,2013-08-14 02:12:00,
2013-08-13 22:17:00,63.3,59.7,30.16,WNW,292,57.0,57.0,87,0.00,,CLR,0.29,VWS V13.01,2013-08-14 02:17:00,
2013-08-13 22:22:00,63.3,59.7,30.17,WNW,292,57.0,57.0,88,0.00,,CLR,0.29,VWS V13.01,2013-08-14 02:22:00,
2013-08-13 22:27:00,63.1,59.5,30.16,North,0,57.0,57.0,88,0.00,,CLR,0.29,VWS V13.01,2013-08-14 02:27:00,
2013-08-13 22:32:00,63.1,59.5,30.16,WNW,292,57.0,57.0,88,0.00,,CLR,0.29,VWS V13.01,2013-08-14 02:32:00,
2013-08-13 22:37:00,63.1,59.5,30.16,WNW,292,57.0,57.0,88,0.00,,CLR,0.29,VWS V13.01,2013-08-14 02:37:00,
2013-08-13 22:42:00,63.1,59.5,30.16,WNW,292,57.0,57.0,88,0.00,,CLR,0.29,VWS V13.01,2013-08-14 02:42:00,
2013-08-13 22:47:00,63.1,59.5,30.16,WNW,292,57.0,57.0,88,0.00,,CLR,0.29,VWS V13.01,2013-08-14 02:47:00,
2013-08-13 22:52:00,63.1,59.3,30.16,NW,315,57.0,57.0,88,0.00,,CLR,0.29,VWS V13.01,2013-08-14 02:52:00,
2013-08-13 22:57:00,63.1,59.1,30.16,SW,225,57.0,57.0,88,0.00,,CLR,0.29,VWS V13.01,2013-08-14 02:57:00,
2013-08-13 23:02:00,62.7,59.1,30.16,NW,315,0.4,2.0,88,0.00,,CLR,0.29,VWS V13.01,2013-08-14 03:02:00,
2013-08-13 23:07:00,62.7,59.0,30.17,WNW,292,0.4,2.0,88,0.00,,CLR,0.29,VWS V13.01,2013-08-14 03:07:00,
2013-08-13 23:12:00,62.6,59.0,30.17,WNW,292,0.4,2.0,88,0.00,,CLR,0.29,VWS V13.01,2013-08-14 03:12:00,
2013-08-13 23:17:00,62.6,58.8,30.17,WNW,292,57.0,57.0,88,0.00,,CLR,0.29,VWS V13.01,2013-08-14 03:17:00,
2013-08-13 23:22:00,62.4,58.8,30.17,West,270,57.0,57.0,88,0.00,,CLR,0.29,VWS V13.01,2013-08-14 03:22:00,
2013-08-13 23:27:00,62.4,58.8,30.18,WNW,292,57.0,57.0,88,0.00,,CLR,0.29,VWS V13.01,2013-08-14 03:27:00,
2013-08-13 23:32:00,62.4,58.8,30.18,WNW,292,57.0,57.0,88,0.00,,CLR,0.29,VWS V13.01,2013-08-14 03:32:00,
2013-08-13 23:37:00,62.4,58.8,30.18,WNW,292,57.0,57.0,88,0.00,,CLR,0.29,VWS V13.01,2013-08-14 03:37:00,
2013-08-13 23:42:00,62.4,58.6,30.17,WNW,292,57.0,57.0,88,0.00,,CLR,0.29,VWS V13.01,2013-08-14 03:42:00,
2013-08-13 23:47:00,62.2,58.6,30.17,WNW,292,57.0,57.0,88,0.00,,CLR,0.29,VWS V13.01,2013-08-14 03:47:00,
2013-08-13 23:52:00,62.2,58.6,30.18,WNW,292,57.0,57.0,88,0.00,,CLR,0.29,VWS V13.01,2013-08-14 03:52:00,
2013-08-13 23:57:00,62.2,58.4,30.18,WNW,292,57.0,57.0,88,0.00,,CLR,0.29,VWS V13.01,2013-08-14 03:57:00,